Location: Newark
(28.2239°N, 112.9771°E)
Time: 14:20:33
(UTC+00:00)

ISS - Visible Passes

Search period start: 19 October 2019 00:00
Search period end: 29 October 2019 00:00
Orbit: 411 x 421 km, 51.6° (Epoch: 19 October)

Date Brightness Start Highest point End Pass type
(mag) Time Alt. Az. Time Alt. Az. Time Alt. Az.
20 Oct -0.8 21:48:15 10° S 21:50:40 19° SE 21:53:06 10° E visible
22 Oct -3.6 21:46:45 10° SW 21:50:05 76° SE 21:53:27 10° NE visible
23 Oct -2.2 21:00:09 23° S 21:01:35 34° SE 21:04:39 10° ENE visible
24 Oct -0.4 20:14:47 12° E 20:14:47 12° E 20:15:22 10° E visible
24 Oct -2.7 21:47:45 17° W 21:49:40 27° NW 21:52:36 10° NNE visible
25 Oct -2.7 21:02:06 36° NNE 21:02:06 36° NNE 21:04:19 10° NNE visible
26 Oct -1.4 21:49:08 10° NW 21:49:27 10° NW 21:49:54 10° NNW visible
